Weather in Sedanovo

Russia / Irkutsk Oblast     56°58′48″N   101°18′52″E
temp.,
°C
wind,
m/s
gust,
m/s
humid.,
%
clouds,
%
prec.,
mm/h
press.,
hPa
HPBL,
m
6 march, sat
sat623:00−13s3795100 0.0 1019157
02:00−13s3794100 0.0 1019192
05:00−10ssw31197100 0.4 1017388
08:00−7wsw51390100 0.7 1017792
11:00−6wsw51088100 0.1 10181075
14:00−4wsw61085100 0.5 10171261
17:00−4wsw51083100 0.4 10171301
20:00−7ssw2895100 0.5 1018257
7 march, sun
sun723:00−6ssw31096100 0.2 1016513
02:00−7ssw3994100 0.4 1014324
05:00−6ssw41390100 0.0 1012524
08:00−8ssw41388100 0.0 1012639
11:00−4wsw61289100 0.1 10111234
14:00−2wsw61187100 0.5 10101224
17:00−1wsw61579100 0.4 10091964
20:00−4w61392100 1.2 10111261
8 march, mon
mon823:00−10wsw4148559 0.3 1014727
02:00−11w4129356 0.3 1017886
05:00−12w51291100 0.1 1019885
08:00−13w51392100 0.1 1022726
11:00−11w51087100 0.1 1024840
14:00−8w4881100 0.1 1024985
17:00−8wsw3483100 0.1 1024871
20:00−12sse239499 0.1 102459
9 march, tue
tue923:00−12sse41193100 0.0 1020340
02:00−10sse41490100 0.0 1016493
05:00−8sse51291100 0.0 1013421
08:00−7ssw41391100 0.0 1012613
11:00−2w71484100 0.2 10121516
14:00−3w71377100 0.4 10151603
17:00−5w61575100 0.1 10171806
20:00−9w4138989 0.1 1020871
10 march, wed
wed1023:00−12w3129315 0.0 1023406
02:00−15sw239817 0.0 102442
05:00−17s229836 0.0 102425
08:00−16sse239645 0.0 102381
11:00−10sse4889100 0.0 1019340
14:00−3s51088100 0.0 1015629
17:000wsw5128599 0.2 10131620
20:00−3wsw3119499 0.4 1015584